• Join FlightAware (Why Join?)
  • Login
  • US Flag GB Flag 
14:02 EDT


 

Airport Tracker/Info


-or-


 

Live Flight TrackerFlight Track Log ✈ SWA378 ✈ 03-Jul-2013 ✈ KSJC - KONT

Flight Track Log - Related Links

Times and Time Zones

All times are in EDT time to prevent confusion due to time zone crossing. See the SWA378 flight status page for this flight to view local times or setup timezone preferences in your user account.

Time Position Orientation Groundspeed Altitude Reporting Facility
EDT Latitude Longitude Course Direction KTS MPH feet Rate Location/Type
11:13 37.4000 -121.9667 133° Southeast 193 222 1,700  Level Northern Cal TRACON
11:14 37.4500 -121.9500 15° North 259 298 4,300 2,160 Climbing Northern Cal TRACON
11:16 37.3647 -121.8294 132° Southeast 244 281 8,300 2,100 Climbing Oakland Center
11:17 37.3081 -121.7678 139° Southeast 261 300 10,800 2,520 Climbing Oakland Center
11:18 36.9745 -121.3908 133° Southeast  Level Estimated
11:18 37.2397 -121.6872 137° Southeast 317 365 13,500  Level Oakland Center
11:19 37.1669 -121.6069 139° Southeast 343 395 16,500 3,120 Climbing Oakland Center
11:20 37.0778 -121.5044 137° Southeast 358 412 20,000 2,820 Climbing Oakland Center
11:21 37.0003 -121.4194 139° Southeast 369 425 22,300 2,220 Climbing Oakland Center
11:22 36.9183 -121.3331 140° Southeast 382 440 24,600 1,980 Climbing Oakland Center
11:23 36.8367 -121.2414 138° Southeast 390 449 26,400 1,680 Climbing Oakland Center
11:24 36.7528 -121.1492 139° Southeast 403 464 28,100 1,680 Climbing Oakland Center
11:25 36.6644 -121.0539 139° Southeast 414 476 29,900 1,800 Climbing Oakland Center
11:26 36.5753 -120.9600 140° Southeast 419 482 31,900 2,040 Climbing Oakland Center
11:27 36.4978 -120.8581 133° Southeast 403 464 34,100 1,500 Climbing Oakland Center
11:28 36.4292 -120.7492 128° Southeast 399 459 35,000 1,380 Climbing Oakland Center
11:29 36.3428 -120.6150 129° Southeast 407 468 37,000 960 Climbing Oakland Center
11:30 36.2714 -120.5050 129° Southeast 409 471 37,000  Level Oakland Center
11:31 36.2000 -120.3958 129° Southeast 408 470 37,000  Level Oakland Center
11:32 36.1286 -120.2856 129° Southeast 409 471 37,000  Level Oakland Center
11:33 36.0586 -120.1775 129° Southeast 405 466 37,000  Level Oakland Center
11:34 35.9864 -120.0639 128° Southeast 414 476 37,000  Level Oakland Center
11:35 35.9142 -119.9558 130° Southeast 409 471 37,000  Level Oakland Center
11:36 35.8425 -119.8469 129° Southeast 408 470 37,000  Level Oakland Center
11:37 35.7714 -119.7394 129° Southeast 405 466 37,000  Level Oakland Center
11:38 35.6989 -119.6300 129° Southeast 409 471 37,000  Level Oakland Center
11:39 35.6117 -119.5017 130° Southeast 407 468 37,000  Level Oakland Center
11:40 35.5700 -119.4378 129° Southeast 408 470 37,000  Level Los Angeles Center
11:41 35.4986 -119.3314 129° Southeast 405 466 37,000  Level Los Angeles Center
11:42 35.4264 -119.2242 130° Southeast 405 466 37,000  Level Los Angeles Center
11:43 35.3553 -119.1175 129° Southeast 405 466 37,000  Level Los Angeles Center
11:44 35.2975 -119.0331 130° Southeast 405 466 37,000 -300 Level Los Angeles Center
11:45 35.2097 -118.9047 130° Southeast 408 470 36,400 -900 Descending Los Angeles Center
11:46 35.1236 -118.7786 130° Southeast 404 465 35,200 -1,080 Descending Los Angeles Center
11:47 35.0544 -118.6761 129° Southeast 393 452 34,200 -1,440 Descending Los Angeles Center
11:48 34.9811 -118.5706 130° Southeast 407 468 32,300 -2,100 Descending Los Angeles Center
11:49 34.9136 -118.4722 130° Southeast 414 476 29,900 -2,040 Descending Los Angeles Center
11:50 34.8289 -118.3494 130° Southeast 401 461 28,200 -1,260 Descending Los Angeles Center
11:51 34.7556 -118.2453 131° Southeast 406 467 27,300 -1,740 Descending Los Angeles Center
11:52 34.6869 -118.1456 130° Southeast 391 450 24,700 -2,100 Descending Los Angeles Center
11:53 34.6225 -118.0467 128° Southeast 376 433 23,000 -1,200 Descending Los Angeles Center
11:54 34.5772 -117.9458 119° Southeast 346 398 22,200 -1,800 Descending Los Angeles Center
11:55 34.5161 -117.8150 120° Southeast 375 432 19,400 -2,460 Descending Los Angeles Center
11:56 34.4678 -117.7097 119° Southeast 363 418 17,200 -2,100 Descending Los Angeles Center
11:57 34.4219 -117.6092 119° Southeast 346 398 15,100 -1,740 Descending Los Angeles Center
11:58 34.3719 -117.4978 119° Southeast 330 380 13,700 -1,500 Descending Los Angeles Center
11:59 34.3219 -117.4144 126° Southeast 318 366 12,000 -1,980 Descending Los Angeles Center
12:01 34.2381 -117.4244 186° South 294 338 9,200 -2,940 Descending Los Angeles Center
12:02 34.1494 -117.4511 194° South 265 305 5,400 -3,480 Descending Los Angeles Center
12:02 34.1000 -117.4667 195° South 250 288 3,600 -1,800 Descending Southern California TRACON
12:03 34.0500 -117.5000 209° Southwest 200 230 2,600 -1,080 Descending Southern California TRACON
12:04 34.0500 -117.5500 270° West 131 151 1,500 -660 Descending Southern California TRACON
12:06 34.0606 -117.6153 281° West 152 175 1,000 -360 Descending Los Angeles Center
12:08 34.0500 -117.6000 North  Level FlightAware Approximate